| time (UTC) | temp C | wind direction | speed KPH | gust KPH | rain 1hr cm | rain 24hr cm | rain mn cm | humidity % | barometer mb |
| 20260507072049 | 7 | 0 | 0.0 | 0.0 | 0.00 | 0.38 | 0.05 | 92 | 1016.7 |
| 20260507071046 | 7 | 0 | 0.0 | 0.0 | 0.00 | 0.38 | 0.05 | 92 | 1016.6 |
| 20260507070053 | 7 | 0 | 0.0 | 0.0 | 0.00 | 0.38 | 0.05 | 94 | 1016.6 |
| 20260507065044 | 7 | 0 | 0.0 | 0.0 | 0.00 | 0.38 | 0.05 | 95 | 1016.5 |
| 20260507064047 | 7 | 0 | 0.0 | 0.0 | 0.00 | 0.38 | 0.05 | 96 | 1016.5 |
| 20260507063047 | 6 | 0 | 0.0 | 0.0 | 0.00 | 0.38 | 0.05 | 96 | 1016.5 |
| 20260507062046 | 6 | 0 | 0.0 | 0.0 | 0.00 | 0.38 | 0.05 | 97 | 1016.6 |
| 20260507061048 | 6 | 0 | 0.0 | 0.0 | 0.00 | 0.38 | 0.05 | 97 | 1016.5 |
| 20260507060048 | 6 | 0 | 0.0 | 0.0 | 0.00 | 0.38 | 0.05 | 98 | 1016.5 |
| 20260507055048 | 5 | 0 | 0.0 | 0.0 | 0.00 | 0.38 | 0.05 | 98 | 1016.5 |
| 20260507054042 | 5 | 0 | 0.0 | 0.0 | 0.00 | 0.38 | 0.05 | 98 | 1016.4 |
| 20260507053044 | 5 | 0 | 0.0 | 0.0 | 0.00 | 0.38 | 0.05 | 98 | 1016.3 |
| 20260507052045 | 5 | 0 | 0.0 | 0.0 | 0.00 | 0.38 | 0.05 | 98 | 1016.3 |
| 20260507051048 | 5 | 0 | 0.0 | 0.0 | 0.00 | 0.38 | 0.05 | 98 | 1016.1 |
| 20260507050044 | 5 | 0 | 0.0 | 0.0 | 0.03 | 0.38 | 0.05 | 99 | 1016.0 |
| 20260507045045 | 5 | 0 | 0.0 | 0.0 | 0.03 | 0.41 | 0.05 | 99 | 1015.9 |
| 20260507044047 | 5 | 0 | 0.0 | 0.0 | 0.03 | 0.41 | 0.05 | 99 | 1015.9 |
| 20260507043046 | 5 | 0 | 0.0 | 0.0 | 0.03 | 0.41 | 0.05 | 99 | 1015.8 |
| 20260507041048 | 5 | 0 | 0.0 | 0.0 | 0.03 | 0.41 | 0.05 | 99 | 1015.6 |
| 20260507040047 | 4 | 0 | 0.0 | 0.0 | 0.03 | 0.41 | 0.05 | 99 | 1015.6 |
| 20260507035048 | 4 | 0 | 0.0 | 0.0 | 0.00 | 0.41 | 0.03 | 99 | 1015.5 |
| 20260507034048 | 4 | 0 | 0.0 | 0.0 | 0.00 | 0.41 | 0.03 | 99 | 1015.5 |
| 20260507033049 | 4 | 0 | 0.0 | 0.0 | 0.00 | 0.43 | 0.03 | 99 | 1015.4 |
| 20260507032048 | 4 | 0 | 0.0 | 0.0 | 0.00 | 0.43 | 0.03 | 99 | 1015.3 |
| 20260507031048 | 4 | 0 | 0.0 | 0.0 | 0.00 | 0.43 | 0.03 | 99 | 1015.2 |
| 20260507030046 | 4 | 0 | 0.0 | 0.0 | 0.00 | 0.43 | 0.03 | 99 | 1015.2 |
| 20260507025048 | 4 | 0 | 0.0 | 0.0 | 0.00 | 0.46 | 0.03 | 99 | 1015.1 |
| 20260507024051 | 4 | 0 | 0.0 | 0.0 | 0.00 | 0.48 | 0.03 | 99 | 1015.1 |
| 20260507023053 | 4 | 0 | 0.0 | 0.0 | 0.00 | 0.48 | 0.03 | 10 | 1015.1 |
| 20260507021046 | 4 | 0 | 0.0 | 0.0 | 0.00 | 0.48 | 0.03 | 10 | 1014.9 |
| 20260507020046 | 4 | 0 | 0.0 | 0.0 | 0.00 | 0.48 | 0.03 | 10 | 1014.8 |
| 20260507015044 | 5 | 0 | 0.0 | 0.0 | 0.00 | 0.51 | 0.03 | 10 | 1014.8 |
| 20260507014048 | 5 | 0 | 0.0 | 0.0 | 0.00 | 0.51 | 0.03 | 10 | 1014.8 |
| 20260507013048 | 5 | 0 | 0.0 | 0.0 | 0.00 | 0.51 | 0.03 | 10 | 1014.7 |
| 20260507012045 | 5 | 0 | 0.0 | 0.0 | 0.00 | 0.51 | 0.03 | 10 | 1014.7 |
| 20260507011047 | 5 | 0 | 0.0 | 0.0 | 0.00 | 0.51 | 0.03 | 10 | 1014.6 |
| 20260507010049 | 5 | 0 | 0.0 | 0.0 | 0.00 | 0.51 | 0.03 | 10 | 1014.6 |
| 20260507005045 | 5 | 0 | 0.0 | 0.0 | 0.00 | 0.51 | 0.03 | 10 | 1014.6 |
| 20260507004048 | 5 | 0 | 0.0 | 0.0 | 0.00 | 0.51 | 0.03 | 10 | 1014.5 |
| 20260507003049 | 5 | 0 | 0.0 | 0.0 | 0.00 | 0.51 | 0.03 | 10 | 1014.4 |
| 20260507002045 | 5 | 0 | 0.0 | 0.0 | 0.00 | 0.51 | 0.03 | 10 | 1014.3 |
| 20260507001045 | 5 | 0 | 0.0 | 0.0 | 0.00 | 0.51 | 0.03 | 10 | 1014.3 |
| 20260507000052 | 5 | 0 | 0.0 | 0.0 | 0.00 | 0.51 | 0.03 | 10 | 1014.3 |
| 20260506235056 | 5 | 0 | 0.0 | 0.0 | 0.00 | 0.51 | 0.03 | 10 | 1014.2 |
| 20260506232055 | 5 | 0 | 0.0 | 0.0 | 0.03 | 0.51 | 0.03 | 10 | 1014.1 |
| 20260506231056 | 5 | 0 | 0.0 | 0.0 | 0.03 | 0.53 | 0.03 | 10 | 1014.0 |
| 20260506230056 | 5 | 0 | 0.0 | 0.0 | 0.03 | 0.53 | 0.03 | 10 | 1014.0 |
| 20260506225054 | 5 | 0 | 0.0 | 0.0 | 0.03 | 0.56 | 0.03 | 10 | 1013.9 |
| 20260506224056 | 5 | 0 | 0.0 | 0.0 | 0.03 | 0.58 | 0.03 | 10 | 1013.9 |
| 20260506223055 | 5 | 0 | 0.0 | 0.0 | 0.03 | 0.61 | 0.03 | 10 | 1013.8 |
| 20260506222057 | 5 | 0 | 0.0 | 0.0 | 0.03 | 0.61 | 0.03 | 10 | 1013.7 |
| 20260506221058 | 5 | 0 | 0.0 | 0.0 | 0.00 | 0.61 | 0.00 | 10 | 1013.6 |
| 20260506220105 | 5 | 0 | 0.0 | 0.0 | 0.00 | 0.61 | 0.00 | 10 | 1013.5 |
| 20260506215101 | 5 | 0 | 0.0 | 0.0 | 0.00 | 0.61 | 0.61 | 10 | 1013.4 |
| 20260506214102 | 5 | 0 | 0.0 | 0.0 | 0.00 | 0.66 | 0.61 | 10 | 1013.3 |
| 20260506213059 | 5 | 0 | 0.0 | 0.0 | 0.00 | 0.69 | 0.61 | 10 | 1013.2 |
| 20260506211102 | 5 | 0 | 0.0 | 0.0 | 0.00 | 0.71 | 0.61 | 10 | 1013.1 |
| 20260506210101 | 5 | 0 | 0.0 | 0.0 | 0.00 | 0.71 | 0.61 | 10 | 1013.1 |
| 20260506205058 | 5 | 0 | 0.0 | 0.0 | 0.00 | 0.71 | 0.61 | 10 | 1013.0 |
| 20260506203059 | 5 | 0 | 0.0 | 0.0 | 0.00 | 0.76 | 0.61 | 10 | 1013.0 |
| 20260506201108 | 5 | 0 | 0.0 | 0.0 | 0.00 | 0.79 | 0.61 | 10 | 1012.6 |
| 20260506200101 | 5 | 0 | 0.0 | 0.0 | 0.00 | 0.79 | 0.61 | 99 | 1012.6 |
| 20260506195059 | 5 | 0 | 0.0 | 0.0 | 0.00 | 0.81 | 0.61 | 99 | 1012.5 |
| 20260506193103 | 5 | 0 | 0.0 | 0.0 | 0.00 | 0.86 | 0.61 | 99 | 1012.5 |
| 20260506192100 | 5 | 0 | 0.0 | 0.0 | 0.00 | 0.89 | 0.61 | 99 | 1012.3 |
| 20260506191057 | 5 | 0 | 0.0 | 0.0 | 0.00 | 0.89 | 0.61 | 99 | 1012.2 |
| 20260506185059 | 5 | 0 | 0.0 | 0.0 | 0.00 | 0.91 | 0.61 | 99 | 1012.3 |
| 20260506184052 | 5 | 0 | 0.0 | 0.0 | 0.00 | 0.94 | 0.61 | 99 | 1012.2 |
| 20260506183057 | 5 | 0 | 0.0 | 0.0 | 0.00 | 0.97 | 0.61 | 99 | 1012.2 |
| 20260506182100 | 6 | 0 | 0.0 | 0.0 | 0.00 | 0.99 | 0.61 | 99 | 1012.1 |
| 20260506181051 | 6 | 0 | 0.0 | 0.0 | 0.00 | 0.99 | 0.61 | 99 | 1012.0 |
| 20260506180058 | 6 | 0 | 0.0 | 0.0 | 0.00 | 1.02 | 0.61 | 99 | 1011.8 |
| 20260506175058 | 6 | 0 | 0.0 | 0.0 | 0.00 | 1.04 | 0.61 | 10 | 1011.6 |
| 20260506174055 | 5 | 0 | 0.0 | 0.0 | 0.00 | 1.07 | 0.61 | 10 | 1011.6 |
| 20260506173055 | 5 | 0 | 0.0 | 0.0 | 0.00 | 1.09 | 0.61 | 99 | 1011.6 |
| 20260506171053 | 6 | 0 | 0.0 | 0.0 | 0.00 | 1.12 | 0.61 | 99 | 1011.4 |
| 20260506170049 | 6 | 0 | 0.0 | 0.0 | 0.00 | 1.14 | 0.61 | 99 | 1011.4 |
| 20260506165050 | 6 | 0 | 0.0 | 0.0 | 0.00 | 1.17 | 0.61 | 99 | 1011.3 |
| 20260506164051 | 6 | 0 | 0.0 | 0.0 | 0.00 | 1.22 | 0.61 | 99 | 1011.3 |
| 20260506163051 | 6 | 0 | 0.0 | 0.0 | 0.00 | 1.27 | 0.61 | 10 | 1011.3 |
| 20260506162056 | 6 | 0 | 0.0 | 0.0 | 0.00 | 1.30 | 0.61 | 99 | 1011.2 |
| 20260506161052 | 6 | 0 | 0.0 | 0.0 | 0.00 | 1.35 | 0.61 | 99 | 1011.2 |
| 20260506155055 | 6 | 0 | 0.0 | 0.0 | 0.00 | 1.50 | 0.61 | 99 | 1011.0 |
| 20260506154054 | 6 | 0 | 0.0 | 0.0 | 0.00 | 1.55 | 0.61 | 99 | 1010.9 |
| 20260506153052 | 6 | 0 | 0.0 | 0.0 | 0.00 | 1.57 | 0.61 | 98 | 1010.9 |
| 20260506152053 | 6 | 0 | 0.0 | 0.0 | 0.03 | 1.63 | 0.61 | 97 | 1010.8 |
| 20260506151055 | 6 | 0 | 0.0 | 0.0 | 0.03 | 1.63 | 0.61 | 97 | 1010.8 |
| 20260506150053 | 6 | 0 | 0.0 | 0.0 | 0.03 | 1.63 | 0.61 | 97 | 1010.8 |
| 20260506143049 | 7 | 0 | 0.0 | 0.0 | 0.05 | 1.63 | 0.61 | 98 | 1010.5 |
| 20260506142047 | 6 | 0 | 0.0 | 0.0 | 0.05 | 1.63 | 0.61 | 98 | 1010.5 |
| 20260506141048 | 6 | 0 | 0.0 | 0.0 | 0.03 | 1.60 | 0.61 | 98 | 1010.5 |
| 20260506140048 | 6 | 0 | 0.0 | 0.0 | 0.05 | 1.60 | 0.61 | 98 | 1010.5 |
| 20260506135050 | 7 | 0 | 0.0 | 0.0 | 0.05 | 1.60 | 0.61 | 98 | 1010.4 |
| 20260506134051 | 7 | 0 | 0.0 | 0.0 | 0.05 | 1.60 | 0.61 | 98 | 1010.4 |
| 20260506133048 | 7 | 0 | 0.0 | 0.0 | 0.05 | 1.60 | 0.61 | 98 | 1010.3 |
| 20260506130050 | 7 | 0 | 0.0 | 0.0 | 0.05 | 1.57 | 0.58 | 98 | 1010.1 |
| 20260506125055 | 7 | 0 | 0.0 | 0.0 | 0.05 | 1.55 | 0.56 | 98 | 1010.1 |
| 20260506124045 | 7 | 0 | 0.0 | 0.0 | 0.05 | 1.55 | 0.56 | 98 | 1010.0 |
| 20260506122050 | 7 | 0 | 0.0 | 0.0 | 0.05 | 1.55 | 0.56 | 98 | 1009.8 |
| 20260506121048 | 7 | 0 | 0.0 | 0.0 | 0.08 | 1.55 | 0.56 | 98 | 1009.7 |
| 20260506115046 | 7 | 0 | 0.0 | 0.0 | 0.10 | 1.55 | 0.53 | 97 | 1009.7 |
| 20260506114049 | 7 | 0 | 0.0 | 0.0 | 0.10 | 1.52 | 0.51 | 98 | 1009.5 |
| 20260506113051 | 7 | 0 | 0.0 | 0.0 | 0.10 | 1.52 | 0.51 | 97 | 1009.5 |
| 20260506112048 | 7 | 0 | 0.0 | 0.0 | 0.10 | 1.50 | 0.51 | 97 | 1009.4 |
| 20260506111049 | 7 | 0 | 0.0 | 0.0 | 0.10 | 1.50 | 0.51 | 97 | 1009.3 |
| 20260506110047 | 7 | 0 | 0.0 | 0.0 | 0.10 | 1.47 | 0.48 | 97 | 1009.3 |
| 20260506105049 | 7 | 0 | 0.0 | 0.0 | 0.08 | 1.45 | 0.46 | 96 | 1009.3 |
| 20260506104047 | 8 | 0 | 0.0 | 0.0 | 0.08 | 1.45 | 0.43 | 96 | 1009.2 |
| 20260506102051 | 8 | 0 | 0.0 | 0.0 | 0.08 | 1.42 | 0.43 | 97 | 1009.0 |
| 20260506101049 | 8 | 0 | 0.0 | 0.0 | 0.05 | 1.40 | 0.41 | 97 | 1009.0 |
| 20260506100046 | 7 | 0 | 0.0 | 0.0 | 0.08 | 1.40 | 0.41 | 97 | 1009.0 |
| 20260506095051 | 7 | 0 | 0.0 | 0.0 | 0.05 | 1.37 | 0.38 | 98 | 1008.9 |
| 20260506094048 | 7 | 0 | 0.0 | 0.0 | 0.08 | 1.37 | 0.38 | 98 | 1008.9 |
| 20260506093048 | 7 | 0 | 0.0 | 0.0 | 0.05 | 1.37 | 0.36 | 98 | 1008.8 |
| 20260506091050 | 7 | 0 | 0.0 | 0.0 | 0.05 | 1.35 | 0.33 | 98 | 1008.7 |
| 20260506090053 | 7 | 0 | 0.0 | 0.0 | 0.05 | 1.35 | 0.33 | 99 | 1008.7 |
| 20260506085051 | 7 | 0 | 0.0 | 0.0 | 0.05 | 1.32 | 0.33 | 10 | 1008.6 |
| 20260506084048 | 7 | 0 | 0.0 | 0.0 | 0.05 | 1.32 | 0.33 | 10 | 1008.6 |
| 20260506083049 | 7 | 0 | 0.0 | 0.0 | 0.03 | 1.30 | 0.30 | 10 | 1008.6 |
| 20260506082050 | 7 | 0 | 0.0 | 0.0 | 0.03 | 1.30 | 0.30 | 10 | 1008.6 |
| 20260506081043 | 7 | 0 | 0.0 | 0.0 | 0.03 | 1.30 | 0.30 | 10 | 1008.6 |